THOR ABLESTAR DEB, 158

Orbit data source: Space-Track

THOR ABLESTAR DEB, 158 is space debris in LEO originally from a launch on Thu, 29 Jun 1961 UTC launched from the Air Force Eastern Test Range (AFETR). Debris objects in space refer to the collection of defunct objects orbiting the Earth. Examples of debris include non-operational satellites, rocket bodies, and fragments generated from explosions, collisions, or faulty payload assembly.

Loading next visibility...
Identifier
158, 1961-015AU
Orbit
LEO
Country
Flag of USUS
Related business
Manufacturer
Unknown
Mission
Spacecraft
Bus & Motor
Unknown
Mass
Unknown
Launch date (UTC)
1961-06-29 (64 years ago)
Launch vehicle
Unknown
Launch site
Air Force Eastern Test Range (AFETR)
Object type
Payload
Rocket body
Debris
Shape & HBR
Unknown
Radar Cross Section
Medium (>0.1 m² and <1 m²)

Expand to show TLE details & history
Last TLE update: 13 hours ago

TLE from 13 hours ago
0 THOR ABLESTAR DEB
1 00158U 61015AU  25258.59138981 -.00000362  00000-0 -80153-3 0  9996
2 00158  67.0756  29.3660 0603413  50.6368 314.6531 12.66056622970586
Epoch: 2025-09-15T14:11Z
TLE epoch observation values (Epoch: 2025-09-15T14:11:36.079Z)
Latitude
-0.00004°
Longitude
-178.32819°
Altitude
1,085.472 km
Speed
7.456 km/s
True Right ascension
01h 57m 27s
True Declination
0° 00' 00"
Sunlit
Object was in full shadow at epoch
Visualization orbit readout
Latitude
Unknown
Longitude
Unknown
Altitude
Unknown
Speed
Unknown
Apparent Right ascension
Unknown
Apparent Declination
Unknown
Sunlit
N/A
Visualization observer readout
Local Sidereal Time
20:17:42
Azimuth
Unknown
Elevation
Unknown
Doppler factor
Unknown
Orbital elements
Apogee altitude
1,865.63 km
Perigee altitude
927.367 km
Semi-major axis
7,774.636 km
Eccentricity
0.06034
Inclination
67.0756°
RAAN
29.366°
Arg. of periapsis
50.6368°
True anomaly
309.46667°
Mean anomaly
314.6531°
Eccentric anomaly
312.08735°
Mean motion
3.16609 °/min
Orbital period
113.7 mins
BSTAR
-0.00080153
Loading maneuver chart data...
Computing Atmospheric mass density...

Documentation

Showing up to 5 results
|